Satoro-T3

operational
NORAD ID: 64589 Int'l Des: 2025-135 Owner: SATORO Country: TW
LEOCIRCULARRETROGRADESSO

About Satoro-T3

Description loading...

Live Position

Loading 3D Globe...

Upcoming Passes

Altitude History

Altitude vs Time

uPlot chart will show altitude changes over time

Two-Line Element Set

1 64589U 25135BP 26062.08103221 .00002837 00000-0 27240-3 0 9999
2 64589 97.7589 177.8076 0004100 343.4381 16.6704 14.93856484 38069
Epoch: Mar 3, 2026 • Age: 18 hours

Current Status

Altitude 600.5 km
Velocity 7.57 km/s
Sub-Earth Point 80.06°N, 29.17°W
Launch Date Jun 23, 2025
Age 0.6 years
Type other

Technical Details

Classification Payload
Mass 4.00 kg
Dry Mass 4.00 kg
Total Mass 4.00 kg
Length 0.30 m
Diameter 0.10 m
Span 0.30 m
Shape Box
Manufacturer SATORO
Bus Type Cubesat 3U
Phase Status In Orbit
Owner/State SATORO/TW

Large Constellations

Loading constellations...